Back to catalog

OPS 4682 DEB

AlivePO
NORAD 38395·DEBRIS·🇺🇸 United States

Launched Apr 3, 1965 from Vandenberg Space Force Base

Loading…

Next Passes (next 24 hours)

TLE

FreshSource: Space-Track

Epoch: Sep 13, 2026, 18:35 UTC

1 38395U 65027CY  26256.77434928  .00000120  00000-0  38156-3 0  9992
2 38395  90.2634  20.4351 0030680 105.3077 255.1438 12.98527430106487

Track OPS 4682 DEB in real time with AllMySat

Download on the App Store